Time,TemperatureF,DewpointF,PressureIn,WindDirection,WindDirectionDegrees,WindSpeedMPH,WindSpeedGustMPH,Humidity,HourlyPrecipIn,Conditions,Clouds,dailyrainin,SolarRadiationWatts/m^2,SoftwareType,DateUTC
2013-08-31 00:03:00,67.5,53.1,29.93,ESE,123,1.3,3.5,60,0.00,CLR,,0.00,0.0,WeatherDisplay:10.37,2013-08-31 07:03:00,
2013-08-31 00:08:00,67.8,52.9,29.93,ESE,123,2.9,4.0,59,0.00,CLR,,0.00,0.0,WeatherDisplay:10.37,2013-08-31 07:08:00,
2013-08-31 00:13:00,67.5,51.2,29.93,ESE,112,6.1,8.1,56,0.00,CLR,,0.00,0.0,WeatherDisplay:10.37,2013-08-31 07:13:00,
2013-08-31 00:18:00,66.6,54.9,29.93,ESE,107,7.5,8.1,66,0.00,CLR,,0.00,0.0,WeatherDisplay:10.37,2013-08-31 07:18:00,
2013-08-31 00:23:00,65.9,52.5,29.93,ESE,103,6.7,8.0,62,0.00,CLR,,0.00,0.0,WeatherDisplay:10.37,2013-08-31 07:23:00,
2013-08-31 00:28:00,65.4,55.7,29.93,ESE,104,6.4,7.0,71,0.00,CLR,,0.00,0.0,WeatherDisplay:10.37,2013-08-31 07:28:00,
2013-08-31 00:33:00,64.9,56.8,29.93,East,99,5.9,6.9,75,0.00,CLR,,0.00,0.0,WeatherDisplay:10.37,2013-08-31 07:33:00,
2013-08-31 00:38:00,64.5,57.1,29.93,East,97,4.9,5.8,77,0.00,CLR,,0.00,0.0,WeatherDisplay:10.37,2013-08-31 07:38:00,
2013-08-31 00:43:00,64.2,57.2,29.93,ESE,119,0.7,2.3,78,0.00,CLR,,0.00,0.0,WeatherDisplay:10.37,2013-08-31 07:43:00,
2013-08-31 00:48:00,64.0,57.0,29.93,ESE,119,2.2,3.5,78,0.00,CLR,,0.00,0.0,WeatherDisplay:10.37,2013-08-31 07:48:00,
2013-08-31 00:53:00,63.8,57.2,29.93,SSE,147,1.4,3.5,79,0.00,CLR,,0.00,0.0,WeatherDisplay:10.37,2013-08-31 07:53:00,
2013-08-31 00:58:00,63.6,57.7,29.93,SE,146,2.6,3.5,81,0.00,CLR,,0.00,0.0,WeatherDisplay:10.37,2013-08-31 07:58:00,
2013-08-31 01:03:00,63.4,58.1,29.93,ESE,103,4.3,4.6,83,0.00,CLR,,0.00,0.0,WeatherDisplay:10.37,2013-08-31 08:03:00,
2013-08-31 01:08:00,63.2,57.9,29.93,East,99,2.7,4.6,83,0.00,CLR,,0.00,0.0,WeatherDisplay:10.37,2013-08-31 08:08:00,
2013-08-31 01:13:00,63.0,58.1,29.92,East,99,2.6,4.0,84,0.00,CLR,,0.00,0.0,WeatherDisplay:10.37,2013-08-31 08:13:00,
2013-08-31 01:18:00,62.9,58.0,29.92,East,99,3.1,3.5,84,0.00,CLR,,0.00,0.0,WeatherDisplay:10.37,2013-08-31 08:18:00,
2013-08-31 01:23:00,62.7,58.1,29.92,ESE,122,3.6,4.0,85,0.00,CLR,,0.00,0.0,WeatherDisplay:10.37,2013-08-31 08:23:00,
2013-08-31 01:28:00,62.7,58.5,29.92,ESE,122,3.0,3.5,86,0.00,CLR,,0.00,0.0,WeatherDisplay:10.37,2013-08-31 08:28:00,
2013-08-31 01:33:00,62.7,58.5,29.92,ESE,122,2.2,3.5,86,0.00,CLR,,0.00,0.0,WeatherDisplay:10.37,2013-08-31 08:33:00,
2013-08-31 01:38:00,62.8,58.5,29.92,ESE,104,4.4,5.0,86,0.00,CLR,,0.00,0.0,WeatherDisplay:10.37,2013-08-31 08:38:00,
2013-08-31 01:43:00,62.9,58.6,29.92,ESE,107,4.1,4.6,86,0.00,CLR,,0.00,0.0,WeatherDisplay:10.37,2013-08-31 08:43:00,
2013-08-31 01:48:00,62.8,58.5,29.92,ESE,112,2.8,3.5,86,0.00,CLR,,0.00,0.0,WeatherDisplay:10.37,2013-08-31 08:48:00,
2013-08-31 01:53:00,62.7,58.5,29.92,ESE,112,2.6,3.5,86,0.00,CLR,,0.00,0.0,WeatherDisplay:10.37,2013-08-31 08:53:00,
2013-08-31 01:58:00,62.7,58.5,29.92,ESE,112,2.6,3.0,86,0.00,CLR,,0.00,0.0,WeatherDisplay:10.37,2013-08-31 08:58:00,
2013-08-31 02:03:00,62.7,58.5,29.92,ESE,112,2.7,3.5,86,0.00,CLR,,0.00,0.0,WeatherDisplay:10.37,2013-08-31 09:03:00,
2013-08-31 02:08:00,62.7,58.5,29.91,ESE,113,1.0,3.5,86,0.00,CLR,,0.00,0.0,WeatherDisplay:10.37,2013-08-31 09:08:00,
2013-08-31 02:13:00,62.6,58.4,29.91,ESE,113,2.6,3.5,86,0.00,CLR,,0.00,0.0,WeatherDisplay:10.37,2013-08-31 09:13:00,
2013-08-31 02:18:00,62.5,58.6,29.91,SE,139,3.7,4.6,87,0.00,CLR,,0.00,0.0,WeatherDisplay:10.37,2013-08-31 09:18:00,
2013-08-31 02:23:00,62.5,57.9,29.91,ESE,123,4.6,5.0,85,0.00,CLR,,0.00,0.0,WeatherDisplay:10.37,2013-08-31 09:23:00,
2013-08-31 02:28:00,62.5,56.9,29.91,ESE,122,3.0,3.5,82,0.00,CLR,,0.00,0.0,WeatherDisplay:10.37,2013-08-31 09:28:00,
2013-08-31 02:33:00,62.5,55.9,29.91,ESE,122,3.8,4.0,79,0.00,CLR,,0.00,0.0,WeatherDisplay:10.37,2013-08-31 09:33:00,
2013-08-31 02:38:00,62.7,55.4,29.91,ESE,122,1.5,2.3,77,0.00,CLR,,0.00,0.0,WeatherDisplay:10.37,2013-08-31 09:38:00,
2013-08-31 02:43:00,62.7,53.9,29.91,ESE,122,0.0,1.2,73,0.00,CLR,,0.00,0.0,WeatherDisplay:10.37,2013-08-31 09:43:00,
2013-08-31 02:48:00,62.9,53.7,29.91,ESE,123,1.5,2.3,72,0.00,CLR,,0.00,0.0,WeatherDisplay:10.37,2013-08-31 09:48:00,
2013-08-31 02:53:00,63.1,53.2,29.91,ESE,123,0.0,0.0,70,0.00,CLR,,0.00,0.0,WeatherDisplay:10.37,2013-08-31 09:53:00,
2013-08-31 02:58:00,63.2,53.6,29.91,ESE,123,0.3,1.0,71,0.00,CLR,,0.00,0.0,WeatherDisplay:10.37,2013-08-31 09:58:00,
2013-08-31 03:03:00,63.3,55.6,29.91,ESE,122,0.0,0.0,76,0.00,CLR,,0.00,0.0,WeatherDisplay:10.37,2013-08-31 10:03:00,
2013-08-31 03:08:00,63.1,55.0,29.91,ESE,122,0.4,1.2,75,0.00,CLR,,0.00,0.0,WeatherDisplay:10.37,2013-08-31 10:08:00,
2013-08-31 03:13:00,62.9,54.9,29.91,ESE,123,2.0,3.0,75,0.00,CLR,,0.00,0.0,WeatherDisplay:10.37,2013-08-31 10:13:00,
2013-08-31 03:18:00,62.7,53.5,29.90,ESE,122,2.4,3.5,72,0.00,CLR,,0.00,0.0,WeatherDisplay:10.37,2013-08-31 10:18:00,
2013-08-31 03:23:00,62.4,52.1,29.90,SSW,205,2.2,3.5,69,0.00,CLR,,0.00,0.0,WeatherDisplay:10.37,2013-08-31 10:23:00,
2013-08-31 03:28:00,62.3,50.4,29.90,SW,218,3.3,4.6,65,0.00,CLR,,0.00,0.0,WeatherDisplay:10.37,2013-08-31 10:28:00,
2013-08-31 03:33:00,62.6,50.2,29.90,SW,228,3.8,4.0,64,0.00,CLR,,0.00,0.0,WeatherDisplay:10.37,2013-08-31 10:33:00,
2013-08-31 03:38:00,62.9,50.1,29.90,SW,232,3.8,4.0,63,0.00,CLR,,0.00,0.0,WeatherDisplay:10.37,2013-08-31 10:38:00,
2013-08-31 03:43:00,63.4,48.8,29.90,SW,222,2.8,4.0,59,0.00,CLR,,0.00,0.0,WeatherDisplay:10.37,2013-08-31 10:43:00,
2013-08-31 03:48:00,63.8,48.7,29.91,SW,231,3.2,3.5,58,0.00,CLR,,0.00,0.0,WeatherDisplay:10.37,2013-08-31 10:48:00,
2013-08-31 03:53:00,64.1,49.0,29.90,SW,231,3.6,3.6,58,0.00,CLR,,0.00,0.0,WeatherDisplay:10.37,2013-08-31 10:53:00,
2013-08-31 03:58:00,64.4,47.9,29.90,SW,231,2.6,3.5,55,0.00,CLR,,0.00,0.0,WeatherDisplay:10.37,2013-08-31 10:58:00,
2013-08-31 04:03:00,64.8,48.7,29.91,SW,230,1.9,2.3,56,0.00,CLR,,0.00,0.0,WeatherDisplay:10.37,2013-08-31 11:03:00,
2013-08-31 04:08:00,64.8,48.7,29.91,ESE,110,2.6,3.5,56,0.00,CLR,,0.00,0.0,WeatherDisplay:10.37,2013-08-31 11:08:00,
2013-08-31 04:13:00,64.2,50.9,29.91,East,80,5.3,5.8,62,0.00,CLR,,0.00,0.0,WeatherDisplay:10.37,2013-08-31 11:13:00,
2013-08-31 04:18:00,63.6,55.9,29.91,ENE,77,3.7,4.6,76,0.00,CLR,,0.00,0.0,WeatherDisplay:10.37,2013-08-31 11:18:00,
2013-08-31 04:23:00,63.0,56.0,29.91,ENE,76,2.7,4.0,78,0.00,CLR,,0.00,0.0,WeatherDisplay:10.37,2013-08-31 11:23:00,
2013-08-31 04:28:00,62.6,56.7,29.91,East,89,2.3,3.5,81,0.00,CLR,,0.00,0.0,WeatherDisplay:10.37,2013-08-31 11:28:00,
2013-08-31 04:33:00,62.3,57.1,29.91,East,89,1.3,2.3,83,0.00,CLR,,0.00,0.0,WeatherDisplay:10.37,2013-08-31 11:33:00,
2013-08-31 04:38:00,62.1,57.2,29.91,East,89,0.5,2.3,84,0.00,CLR,,0.00,0.0,WeatherDisplay:10.37,2013-08-31 11:38:00,
2013-08-31 04:43:00,61.9,56.7,29.91,East,89,0.7,1.2,83,0.00,CLR,,0.00,0.0,WeatherDisplay:10.37,2013-08-31 11:43:00,
2013-08-31 04:48:00,61.7,56.5,29.91,East,89,2.2,3.5,83,0.00,CLR,,0.00,0.0,WeatherDisplay:10.37,2013-08-31 11:48:00,
2013-08-31 04:53:00,61.7,57.1,29.91,East,88,2.1,3.5,85,0.00,CLR,,0.00,0.0,WeatherDisplay:10.37,2013-08-31 11:53:00,
2013-08-31 04:58:00,61.6,57.0,29.91,East,89,0.8,2.3,85,0.00,CLR,,0.00,0.0,WeatherDisplay:10.37,2013-08-31 11:58:00,
2013-08-31 05:03:00,61.6,56.4,29.91,East,89,0.2,1.2,83,0.00,CLR,,0.00,0.0,WeatherDisplay:10.37,2013-08-31 12:03:00,
2013-08-31 05:08:00,61.6,56.4,29.91,East,88,0.3,1.2,83,0.00,CLR,,0.00,0.0,WeatherDisplay:10.37,2013-08-31 12:08:00,
2013-08-31 05:13:00,61.6,56.4,29.91,East,88,2.2,3.5,83,0.00,CLR,,0.00,0.0,WeatherDisplay:10.37,2013-08-31 12:13:00,
2013-08-31 05:18:00,61.5,56.3,29.91,ESE,108,2.8,3.5,83,0.00,CLR,,0.00,0.0,WeatherDisplay:10.37,2013-08-31 12:18:00,
2013-08-31 05:23:00,61.6,57.4,29.91,ESE,118,4.8,6.0,86,0.00,CLR,,0.00,0.0,WeatherDisplay:10.37,2013-08-31 12:23:00,
2013-08-31 05:28:00,61.4,56.8,29.91,SE,141,5.2,6.0,85,0.00,CLR,,0.00,0.0,WeatherDisplay:10.37,2013-08-31 12:28:00,
2013-08-31 05:33:00,61.2,54.6,29.91,SE,141,3.8,4.0,79,0.00,CLR,,0.00,0.0,WeatherDisplay:10.37,2013-08-31 12:33:00,
2013-08-31 05:38:00,61.5,54.6,29.91,SE,127,2.5,3.5,78,0.00,CLR,,0.00,0.0,WeatherDisplay:10.37,2013-08-31 12:38:00,
2013-08-31 05:43:00,61.8,55.2,29.91,ESE,122,3.1,4.0,79,0.00,CLR,,0.00,0.0,WeatherDisplay:10.37,2013-08-31 12:43:00,
2013-08-31 05:48:00,62.1,55.2,29.91,ESE,115,4.1,4.6,78,0.00,CLR,,0.00,0.0,WeatherDisplay:10.37,2013-08-31 12:48:00,
2013-08-31 05:53:00,62.2,53.4,29.92,ESE,114,2.3,3.5,73,0.00,CLR,,0.00,0.0,WeatherDisplay:10.37,2013-08-31 12:53:00,
2013-08-31 05:58:00,62.4,53.3,29.92,ESE,115,2.3,3.5,72,0.00,CLR,,0.00,0.0,WeatherDisplay:10.37,2013-08-31 12:58:00,
2013-08-31 06:03:00,62.5,53.7,29.92,ESE,114,1.2,3.5,73,0.00,CLR,,0.00,0.0,WeatherDisplay:10.37,2013-08-31 13:03:00,
2013-08-31 06:08:00,62.3,51.6,29.92,ESE,115,3.1,4.0,68,0.00,CLR,,0.00,0.0,WeatherDisplay:10.37,2013-08-31 13:08:00,
2013-08-31 06:13:00,62.5,51.4,29.92,ESE,114,2.6,3.5,67,0.00,CLR,,0.00,0.0,WeatherDisplay:10.37,2013-08-31 13:13:00,
2013-08-31 06:18:00,62.4,54.0,29.92,East,89,4.2,6.0,74,0.00,CLR,,0.00,0.0,WeatherDisplay:10.37,2013-08-31 13:18:00,
2013-08-31 06:23:00,62.0,56.1,29.92,ESE,110,3.8,5.0,81,0.00,CLR,,0.00,0.0,WeatherDisplay:10.37,2013-08-31 13:23:00,
2013-08-31 06:28:00,61.4,55.9,29.92,SSE,156,3.8,6.9,82,0.00,CLR,,0.00,0.0,WeatherDisplay:10.37,2013-08-31 13:28:00,
2013-08-31 06:33:00,61.0,55.8,29.93,ESE,113,3.6,6.0,83,0.00,CLR,,0.00,0.0,WeatherDisplay:10.37,2013-08-31 13:33:00,
2013-08-31 06:38:00,60.6,55.7,29.93,East,91,3.1,4.6,84,0.00,CLR,,0.00,0.0,WeatherDisplay:10.37,2013-08-31 13:38:00,
2013-08-31 06:43:00,60.3,55.8,29.93,ESE,118,2.8,4.6,85,0.00,CLR,,0.00,5.0,WeatherDisplay:10.37,2013-08-31 13:43:00,
2013-08-31 06:48:00,60.1,55.9,29.93,SE,137,1.6,3.5,86,0.00,CLR,,0.00,7.0,WeatherDisplay:10.37,2013-08-31 13:48:00,
2013-08-31 06:53:00,59.9,56.0,29.93,East,99,3.6,4.6,87,0.00,CLR,,0.00,9.0,WeatherDisplay:10.37,2013-08-31 13:53:00,
2013-08-31 06:58:00,59.7,56.1,29.94,ENE,78,2.8,3.5,88,0.00,CLR,,0.00,11.0,WeatherDisplay:10.37,2013-08-31 13:58:00,
2013-08-31 07:03:00,59.5,55.9,29.94,NE,55,2.7,5.8,88,0.00,CLR,,0.00,12.0,WeatherDisplay:10.37,2013-08-31 14:03:00,
2013-08-31 07:08:00,59.3,55.7,29.94,SE,134,3.6,4.6,88,0.00,CLR,,0.00,14.0,WeatherDisplay:10.37,2013-08-31 14:08:00,
2013-08-31 07:13:00,59.1,55.5,29.94,SE,132,3.1,5.0,88,0.00,CLR,,0.00,16.0,WeatherDisplay:10.37,2013-08-31 14:13:00,
2013-08-31 07:18:00,59.0,55.8,29.94,SE,136,3.1,4.6,89,0.00,CLR,,0.00,16.0,WeatherDisplay:10.37,2013-08-31 14:18:00,
2013-08-31 07:23:00,58.9,56.0,29.94,ESE,118,3.4,5.0,90,0.00,CLR,,0.00,19.0,WeatherDisplay:10.37,2013-08-31 14:23:00,
2013-08-31 07:28:00,59.0,56.1,29.94,SE,131,2.8,3.5,90,0.00,CLR,,0.00,65.0,WeatherDisplay:10.37,2013-08-31 14:28:00,
2013-08-31 07:33:00,59.1,56.5,29.94,SE,135,4.0,5.8,91,0.00,CLR,,0.00,120.0,WeatherDisplay:10.37,2013-08-31 14:33:00,
2013-08-31 07:38:00,59.3,56.7,29.94,SE,134,2.8,4.6,91,0.00,CLR,,0.00,76.0,WeatherDisplay:10.37,2013-08-31 14:38:00,
2013-08-31 07:43:00,59.7,57.1,29.94,ESE,114,3.1,4.6,91,0.00,CLR,,0.00,35.0,WeatherDisplay:10.37,2013-08-31 14:43:00,
2013-08-31 07:48:00,60.3,57.7,29.94,East,82,4.8,5.0,91,0.00,CLR,,0.00,72.0,WeatherDisplay:10.37,2013-08-31 14:48:00,
2013-08-31 07:53:00,60.9,57.6,29.94,ESE,103,3.9,5.8,89,0.00,CLR,,0.00,40.0,WeatherDisplay:10.37,2013-08-31 14:53:00,
2013-08-31 07:58:00,61.4,57.8,29.94,ESE,115,1.7,5.8,88,0.00,CLR,,0.00,26.0,WeatherDisplay:10.37,2013-08-31 14:58:00,
2013-08-31 08:03:00,61.7,58.1,29.94,ESE,108,3.6,5.8,88,0.00,FEW,,0.00,26.0,WeatherDisplay:10.37,2013-08-31 15:03:00,
2013-08-31 08:08:00,62.2,58.3,29.94,ESE,116,2.2,4.0,87,0.00,FEW,,0.00,28.0,WeatherDisplay:10.37,2013-08-31 15:08:00,
2013-08-31 08:13:00,62.6,58.4,29.94,ESE,110,3.4,5.8,86,0.00,FEW,,0.00,28.0,WeatherDisplay:10.37,2013-08-31 15:13:00,
2013-08-31 08:18:00,63.0,58.4,29.94,East,80,3.1,4.6,85,0.00,FEW,,0.00,28.0,WeatherDisplay:10.37,2013-08-31 15:18:00,
2013-08-31 08:23:00,63.5,58.9,29.94,ENE,78,0.7,3.5,85,0.00,FEW,,0.00,30.0,WeatherDisplay:10.37,2013-08-31 15:23:00,
2013-08-31 08:28:00,64.0,58.7,29.94,ESE,103,1.7,4.6,83,0.00,FEW,,0.00,30.0,WeatherDisplay:10.37,2013-08-31 15:28:00,
2013-08-31 08:33:00,64.8,59.2,29.95,ENE,77,1.5,3.5,82,0.00,FEW,,0.00,32.0,WeatherDisplay:10.37,2013-08-31 15:33:00,
2013-08-31 08:38:00,65.2,58.9,29.95,ESE,116,3.1,5.8,80,0.00,FEW,,0.00,32.0,WeatherDisplay:10.37,2013-08-31 15:38:00,
2013-08-31 08:43:00,65.4,59.1,29.95,East,80,4.1,4.6,80,0.00,FEW,,0.00,32.0,WeatherDisplay:10.37,2013-08-31 15:43:00,
2013-08-31 08:48:00,65.7,59.0,29.95,East,91,2.5,5.8,79,0.00,FEW,,0.00,32.0,WeatherDisplay:10.37,2013-08-31 15:48:00,
2013-08-31 08:53:00,66.3,59.6,29.95,ENE,78,3.3,4.6,79,0.00,FEW,,0.00,33.0,WeatherDisplay:10.37,2013-08-31 15:53:00,
2013-08-31 08:58:00,67.0,59.5,29.95,ENE,69,2.9,5.0,77,0.00,FEW,,0.00,33.0,WeatherDisplay:10.37,2013-08-31 15:58:00,
2013-08-31 09:03:00,67.7,59.9,29.95,NE,47,3.6,3.6,76,0.00,FEW,,0.00,35.0,WeatherDisplay:10.37,2013-08-31 16:03:00,
2013-08-31 09:08:00,68.6,59.6,29.95,ENE,59,2.9,4.0,73,0.00,FEW,,0.00,35.0,WeatherDisplay:10.37,2013-08-31 16:08:00,
2013-08-31 09:13:00,69.3,59.5,29.95,NE,55,3.3,3.5,71,0.00,CLR,,0.00,35.0,WeatherDisplay:10.37,2013-08-31 16:13:00,
2013-08-31 09:18:00,69.7,59.5,29.95,ENE,58,3.5,3.5,70,0.00,CLR,,0.00,37.0,WeatherDisplay:10.37,2013-08-31 16:18:00,
2013-08-31 09:23:00,70.3,59.2,29.95,NE,44,2.8,4.6,68,0.00,CLR,,0.00,37.0,WeatherDisplay:10.37,2013-08-31 16:23:00,
2013-08-31 09:28:00,71.1,60.0,29.95,NNE,28,1.6,2.3,68,0.00,CLR,,0.00,46.0,WeatherDisplay:10.37,2013-08-31 16:28:00,
2013-08-31 09:33:00,71.6,59.6,29.95,North,357,1.0,3.5,66,0.00,CLR,,0.00,97.0,WeatherDisplay:10.37,2013-08-31 16:33:00,
2013-08-31 09:38:00,72.2,60.2,29.95,NNE,29,2.4,3.5,66,0.00,CLR,,0.00,209.0,WeatherDisplay:10.37,2013-08-31 16:38:00,
2013-08-31 09:43:00,72.7,59.8,29.95,NE,54,2.4,3.5,64,0.00,CLR,,0.00,360.0,WeatherDisplay:10.37,2013-08-31 16:43:00,
2013-08-31 09:48:00,73.2,59.8,29.95,NNE,33,1.8,3.5,63,0.00,CLR,,0.00,480.0,WeatherDisplay:10.37,2013-08-31 16:48:00,
2013-08-31 09:53:00,73.1,59.8,29.95,NE,54,1.6,3.5,63,0.00,CLR,,0.00,573.0,WeatherDisplay:10.37,2013-08-31 16:53:00,
2013-08-31 09:58:00,73.4,60.0,29.95,NNE,27,1.8,3.5,63,0.00,CLR,,0.00,603.0,WeatherDisplay:10.37,2013-08-31 16:58:00,
2013-08-31 10:03:00,74.0,60.2,29.95,NNE,24,2.4,3.5,62,0.00,CLR,,0.00,617.0,WeatherDisplay:10.37,2013-08-31 17:03:00,
2013-08-31 10:08:00,74.5,60.2,29.95,NE,45,3.6,5.8,61,0.00,CLR,,0.00,629.0,WeatherDisplay:10.37,2013-08-31 17:08:00,
2013-08-31 10:13:00,74.9,60.5,29.95,East,85,3.6,5.8,61,0.00,CLR,,0.00,643.0,WeatherDisplay:10.37,2013-08-31 17:13:00,
2013-08-31 10:18:00,75.1,60.3,29.95,ENE,58,3.2,4.6,60,0.00,CLR,,0.00,654.0,WeatherDisplay:10.37,2013-08-31 17:18:00,
2013-08-31 10:23:00,74.9,60.1,29.95,NE,37,3.4,4.6,60,0.00,CLR,,0.00,666.0,WeatherDisplay:10.37,2013-08-31 17:23:00,
2013-08-31 10:28:00,75.1,60.3,29.95,NNE,15,2.0,3.5,60,0.00,CLR,,0.00,679.0,WeatherDisplay:10.37,2013-08-31 17:28:00,
2013-08-31 10:34:00,75.4,60.5,29.95,NNE,32,1.7,5.8,60,0.00,CLR,,0.00,689.0,WeatherDisplay:10.37,2013-08-31 17:34:00,
2013-08-31 10:39:00,75.9,61.0,29.95,North,9,3.0,4.6,60,0.00,CLR,,0.00,705.0,WeatherDisplay:10.37,2013-08-31 17:39:00,
2013-08-31 10:44:00,76.3,60.9,29.95,NE,51,2.2,3.5,59,0.00,CLR,,0.00,712.0,WeatherDisplay:10.37,2013-08-31 17:44:00,
2013-08-31 10:49:00,76.6,60.7,29.95,WNW,297,0.9,3.5,58,0.00,CLR,,0.00,721.0,WeatherDisplay:10.37,2013-08-31 17:49:00,
2013-08-31 10:54:00,77.0,61.1,29.95,North,8,2.8,3.5,58,0.00,CLR,,0.00,737.0,WeatherDisplay:10.37,2013-08-31 17:54:00,
2013-08-31 10:59:00,77.3,61.4,29.95,NW,309,0.8,2.3,58,0.00,CLR,,0.00,745.0,WeatherDisplay:10.37,2013-08-31 17:59:00,
2013-08-31 11:04:00,77.7,61.3,29.95,NNW,334,3.5,5.8,57,0.00,CLR,,0.00,752.0,WeatherDisplay:10.37,2013-08-31 18:04:00,
2013-08-31 11:09:00,78.2,61.7,29.95,NNE,24,1.6,4.6,57,0.00,CLR,,0.00,761.0,WeatherDisplay:10.37,2013-08-31 18:09:00,
2013-08-31 11:14:00,78.7,61.2,29.95,NE,37,2.5,3.5,55,0.00,CLR,,0.00,772.0,WeatherDisplay:10.37,2013-08-31 18:14:00,
2013-08-31 11:19:00,78.8,61.3,29.95,NNE,12,1.7,4.0,55,0.00,CLR,,0.00,63.0,WeatherDisplay:10.37,2013-08-31 18:19:00,
2013-08-31 11:24:00,79.0,61.5,29.94,ENE,78,4.3,6.9,55,0.00,CLR,,0.00,664.0,WeatherDisplay:10.37,2013-08-31 18:24:00,
2013-08-31 11:29:00,79.1,61.5,29.94,NNE,24,4.6,6.0,55,0.00,CLR,,0.00,796.0,WeatherDisplay:10.37,2013-08-31 18:29:00,
2013-08-31 11:34:00,79.3,61.7,29.94,NNE,22,1.1,3.5,55,0.00,CLR,,0.00,805.0,WeatherDisplay:10.37,2013-08-31 18:34:00,
2013-08-31 11:39:00,79.7,61.6,29.94,NNW,339,4.7,8.1,54,0.00,CLR,,0.00,810.0,WeatherDisplay:10.37,2013-08-31 18:39:00,
2013-08-31 11:44:00,80.2,62.0,29.94,West,259,2.1,3.5,54,0.00,CLR,,0.00,824.0,WeatherDisplay:10.37,2013-08-31 18:44:00,
2013-08-31 11:49:00,80.6,61.9,29.95,NNE,30,1.9,3.0,53,0.00,CLR,,0.00,824.0,WeatherDisplay:10.37,2013-08-31 18:49:00,
2013-08-31 11:54:00,81.0,61.7,29.95,NNE,29,1.1,3.5,52,0.00,CLR,,0.00,833.0,WeatherDisplay:10.37,2013-08-31 18:54:00,
2013-08-31 11:59:00,81.3,61.4,29.94,North,360,3.2,5.8,51,0.00,CLR,,0.00,837.0,WeatherDisplay:10.37,2013-08-31 18:59:00,
2013-08-31 12:04:00,81.4,62.1,29.94,North,3,3.1,5.8,52,0.00,CLR,,0.00,844.0,WeatherDisplay:10.37,2013-08-31 19:04:00,
2013-08-31 12:09:00,81.5,61.6,29.94,North,6,3.8,5.8,51,0.00,CLR,,0.00,847.0,WeatherDisplay:10.37,2013-08-31 19:09:00,
2013-08-31 12:14:00,81.7,61.8,29.94,NE,44,3.1,4.6,51,0.00,CLR,,0.00,851.0,WeatherDisplay:10.37,2013-08-31 19:14:00,
2013-08-31 12:19:00,81.8,61.9,29.94,NNW,343,3.7,5.8,51,0.00,CLR,,0.00,856.0,WeatherDisplay:10.37,2013-08-31 19:19:00,
2013-08-31 12:24:00,82.0,61.5,29.94,ENE,60,3.9,5.8,50,0.00,CLR,,0.00,861.0,WeatherDisplay:10.37,2013-08-31 19:24:00,
2013-08-31 12:29:00,81.8,61.9,29.94,NNW,345,2.0,3.5,51,0.00,CLR,,0.00,863.0,WeatherDisplay:10.37,2013-08-31 19:29:00,
2013-08-31 12:34:00,82.0,62.1,29.94,NE,53,1.7,4.0,51,0.00,CLR,,0.00,863.0,WeatherDisplay:10.37,2013-08-31 19:34:00,
2013-08-31 12:39:00,82.2,61.7,29.94,NNW,345,1.8,3.5,50,0.00,CLR,,0.00,870.0,WeatherDisplay:10.37,2013-08-31 19:39:00,
2013-08-31 12:44:00,82.6,62.1,29.93,ENE,76,5.4,6.9,50,0.00,CLR,,0.00,867.0,WeatherDisplay:10.37,2013-08-31 19:44:00,
2013-08-31 12:49:00,82.4,61.9,29.93,NNE,26,4.3,6.9,50,0.00,CLR,,0.00,874.0,WeatherDisplay:10.37,2013-08-31 19:49:00,
2013-08-31 12:54:00,82.4,61.9,29.93,North,354,4.3,6.9,50,0.00,CLR,,0.00,870.0,WeatherDisplay:10.37,2013-08-31 19:54:00,
2013-08-31 12:59:00,82.5,62.0,29.93,NNE,29,3.3,5.8,50,0.00,CLR,,0.00,868.0,WeatherDisplay:10.37,2013-08-31 19:59:00,
2013-08-31 13:04:00,82.5,62.0,29.93,NNE,27,3.8,5.8,50,0.00,CLR,,0.00,870.0,WeatherDisplay:10.37,2013-08-31 20:04:00,
2013-08-31 13:09:00,82.6,61.5,29.93,NNE,22,3.6,4.6,49,0.00,CLR,,0.00,874.0,WeatherDisplay:10.37,2013-08-31 20:09:00,
2013-08-31 13:14:00,82.6,62.1,29.93,NNE,12,2.7,4.6,50,0.00,CLR,,0.00,868.0,WeatherDisplay:10.37,2013-08-31 20:14:00,
2013-08-31 13:19:00,82.9,61.8,29.93,WNW,294,3.0,6.9,49,0.00,CLR,,0.00,868.0,WeatherDisplay:10.37,2013-08-31 20:19:00,
2013-08-31 13:24:00,83.4,61.7,29.93,NE,36,3.4,4.6,48,0.00,CLR,,0.00,867.0,WeatherDisplay:10.37,2013-08-31 20:24:00,
2013-08-31 13:29:00,83.8,61.4,29.93,North,351,4.0,8.1,47,0.00,CLR,,0.00,868.0,WeatherDisplay:10.37,2013-08-31 20:29:00,
2013-08-31 13:34:00,84.1,61.7,29.93,North,4,4.3,8.1,47,0.00,CLR,,0.00,865.0,WeatherDisplay:10.37,2013-08-31 20:34:00,
2013-08-31 13:39:00,84.0,61.6,29.93,NNE,14,2.3,4.0,47,0.00,CLR,,0.00,863.0,WeatherDisplay:10.37,2013-08-31 20:39:00,
2013-08-31 13:44:00,84.0,61.6,29.92,NW,306,3.5,6.9,47,0.00,CLR,,0.00,860.0,WeatherDisplay:10.37,2013-08-31 20:44:00,
2013-08-31 13:49:00,84.1,61.1,29.92,NNE,28,3.5,4.6,46,0.00,CLR,,0.00,861.0,WeatherDisplay:10.37,2013-08-31 20:49:00,
2013-08-31 13:54:00,84.3,60.6,29.92,NNE,20,1.5,3.5,45,0.00,CLR,,0.00,853.0,WeatherDisplay:10.37,2013-08-31 20:54:00,
2013-08-31 13:59:00,84.4,61.4,29.92,NNE,22,3.5,8.0,46,0.00,CLR,,0.00,844.0,WeatherDisplay:10.37,2013-08-31 20:59:00,
2013-08-31 14:04:00,84.3,61.3,29.92,NNE,25,4.1,7.0,46,0.00,CLR,,0.00,837.0,WeatherDisplay:10.37,2013-08-31 21:04:00,
2013-08-31 14:09:00,84.2,61.2,29.92,North,6,2.4,4.6,46,0.00,CLR,,0.00,835.0,WeatherDisplay:10.37,2013-08-31 21:09:00,
2013-08-31 14:14:00,84.0,61.0,29.92,NNE,22,3.1,4.6,46,0.00,CLR,,0.00,828.0,WeatherDisplay:10.37,2013-08-31 21:14:00,
2013-08-31 14:19:00,84.1,60.5,29.92,NNE,13,2.6,4.6,45,0.00,CLR,,0.00,824.0,WeatherDisplay:10.37,2013-08-31 21:19:00,
2013-08-31 14:24:00,84.3,60.6,29.92,NNW,337,2.7,3.5,45,0.00,CLR,,0.00,814.0,WeatherDisplay:10.37,2013-08-31 21:24:00,
2013-08-31 14:29:00,84.5,60.8,29.91,WNW,297,3.3,4.6,45,0.00,CLR,,0.00,810.0,WeatherDisplay:10.37,2013-08-31 21:29:00,
2013-08-31 14:34:00,84.8,60.5,29.91,NNE,26,1.9,3.5,44,0.00,CLR,,0.00,802.0,WeatherDisplay:10.37,2013-08-31 21:34:00,
2013-08-31 14:39:00,85.0,60.6,29.91,North,6,3.9,5.0,44,0.00,CLR,,0.00,793.0,WeatherDisplay:10.37,2013-08-31 21:39:00,
2013-08-31 14:44:00,85.1,60.7,29.91,North,8,5.2,8.1,44,0.00,CLR,,0.00,782.0,WeatherDisplay:10.37,2013-08-31 21:44:00,
2013-08-31 14:49:00,85.0,60.6,29.91,East,93,5.0,6.9,44,0.00,CLR,,0.00,773.0,WeatherDisplay:10.37,2013-08-31 21:49:00,
2013-08-31 14:54:00,84.8,61.1,29.90,NNW,331,2.2,3.5,45,0.00,CLR,,0.00,772.0,WeatherDisplay:10.37,2013-08-31 21:54:00,
2013-08-31 14:59:00,84.9,60.6,29.90,NE,43,2.9,6.9,44,0.00,CLR,,0.00,763.0,WeatherDisplay:10.37,2013-08-31 21:59:00,
2013-08-31 15:04:00,84.7,60.4,29.90,NNW,347,2.4,6.9,44,0.00,CLR,,0.00,749.0,WeatherDisplay:10.37,2013-08-31 22:04:00,
2013-08-31 15:09:00,84.7,60.4,29.90,NW,308,2.3,4.0,44,0.00,CLR,,0.00,740.0,WeatherDisplay:10.37,2013-08-31 22:09:00,
2013-08-31 15:14:00,84.9,60.6,29.90,NNE,33,2.5,5.8,44,0.00,CLR,,0.00,728.0,WeatherDisplay:10.37,2013-08-31 22:14:00,
2013-08-31 15:19:00,85.0,60.6,29.90,North,357,2.1,4.6,44,0.00,CLR,,0.00,717.0,WeatherDisplay:10.37,2013-08-31 22:19:00,
2013-08-31 15:24:00,84.9,60.6,29.90,NNE,22,2.6,3.5,44,0.00,CLR,,0.00,708.0,WeatherDisplay:10.37,2013-08-31 22:24:00,
2013-08-31 15:29:00,84.9,60.6,29.90,NNE,28,2.4,4.6,44,0.00,CLR,,0.00,694.0,WeatherDisplay:10.37,2013-08-31 22:29:00,
2013-08-31 15:34:00,84.9,60.6,29.90,NNE,31,2.4,3.5,44,0.00,CLR,,0.00,686.0,WeatherDisplay:10.37,2013-08-31 22:34:00,
2013-08-31 15:39:00,84.8,60.5,29.89,WNW,296,1.1,3.5,44,0.00,CLR,,0.00,675.0,WeatherDisplay:10.37,2013-08-31 22:39:00,
2013-08-31 15:44:00,85.0,60.6,29.89,North,10,3.3,4.6,44,0.00,CLR,,0.00,659.0,WeatherDisplay:10.37,2013-08-31 22:44:00,
2013-08-31 15:49:00,85.0,60.6,29.89,North,1,2.2,3.5,44,0.00,CLR,,0.00,647.0,WeatherDisplay:10.37,2013-08-31 22:49:00,
2013-08-31 15:54:00,85.3,60.3,29.89,North,352,2.5,4.6,43,0.00,CLR,,0.00,636.0,WeatherDisplay:10.37,2013-08-31 22:54:00,
2013-08-31 15:59:00,85.4,60.4,29.89,ENE,72,1.7,3.5,43,0.00,CLR,,0.00,626.0,WeatherDisplay:10.37,2013-08-31 22:59:00,
2013-08-31 16:04:00,85.2,60.8,29.89,NNW,336,2.3,3.5,44,0.00,CLR,,0.00,615.0,WeatherDisplay:10.37,2013-08-31 23:04:00,
2013-08-31 16:09:00,85.1,60.7,29.89,NNW,344,2.6,4.6,44,0.00,CLR,,0.00,605.0,WeatherDisplay:10.37,2013-08-31 23:09:00,
2013-08-31 16:14:00,85.2,60.2,29.89,NNW,328,2.4,3.5,43,0.00,CLR,,0.00,589.0,WeatherDisplay:10.37,2013-08-31 23:14:00,
2013-08-31 16:19:00,84.9,60.6,29.89,NNW,347,2.4,4.6,44,0.00,CLR,,0.00,577.0,WeatherDisplay:10.37,2013-08-31 23:19:00,
2013-08-31 16:24:00,85.0,60.6,29.89,North,351,3.0,4.6,44,0.00,CLR,,0.00,575.0,WeatherDisplay:10.37,2013-08-31 23:24:00,
2013-08-31 16:29:00,85.1,60.7,29.89,NNE,12,1.1,3.5,44,0.00,CLR,,0.00,550.0,WeatherDisplay:10.37,2013-08-31 23:29:00,
2013-08-31 16:34:00,85.2,60.2,29.88,North,4,1.8,3.5,43,0.00,CLR,,0.00,524.0,WeatherDisplay:10.37,2013-08-31 23:34:00,
2013-08-31 16:39:00,85.3,60.3,29.88,NNW,340,0.8,2.3,43,0.00,CLR,,0.00,519.0,WeatherDisplay:10.37,2013-08-31 23:39:00,
2013-08-31 16:44:00,85.3,60.3,29.88,North,10,3.8,4.6,43,0.00,CLR,,0.00,510.0,WeatherDisplay:10.37,2013-08-31 23:44:00,
2013-08-31 16:49:00,85.2,60.2,29.88,NNE,31,3.1,3.5,43,0.00,CLR,,0.00,490.0,WeatherDisplay:10.37,2013-08-31 23:49:00,
2013-08-31 16:54:00,85.2,60.2,29.88,NNW,339,0.9,2.3,43,0.00,CLR,,0.00,473.0,WeatherDisplay:10.37,2013-08-31 23:54:00,
2013-08-31 16:59:00,85.1,60.7,29.88,ENE,68,4.3,6.9,44,0.00,CLR,,0.00,457.0,WeatherDisplay:10.37,2013-08-31 23:59:00,
2013-08-31 17:04:00,84.7,60.4,29.88,North,6,2.6,3.5,44,0.00,CLR,,0.00,441.0,WeatherDisplay:10.37,2013-09-01 00:04:00,
2013-08-31 17:09:00,84.3,60.0,29.88,NE,37,3.7,5.8,44,0.00,CLR,,0.00,425.0,WeatherDisplay:10.37,2013-09-01 00:09:00,
2013-08-31 17:14:00,84.1,59.8,29.88,NE,39,2.8,3.5,44,0.00,CLR,,0.00,410.0,WeatherDisplay:10.37,2013-09-01 00:14:00,
2013-08-31 17:19:00,83.5,59.3,29.88,NE,39,3.4,4.6,44,0.00,CLR,,0.00,392.0,WeatherDisplay:10.37,2013-09-01 00:19:00,
2013-08-31 17:24:00,83.2,59.6,29.88,NE,41,4.0,6.9,45,0.00,CLR,,0.00,380.0,WeatherDisplay:10.37,2013-09-01 00:24:00,
2013-08-31 17:29:00,83.1,60.2,29.88,NE,39,4.1,6.0,46,0.00,CLR,,0.00,362.0,WeatherDisplay:10.37,2013-09-01 00:29:00,
2013-08-31 17:34:00,83.0,60.7,29.88,NE,54,4.3,6.9,47,0.00,CLR,,0.00,345.0,WeatherDisplay:10.37,2013-09-01 00:34:00,
2013-08-31 17:39:00,82.3,60.6,29.88,ENE,70,2.9,3.5,48,0.00,CLR,,0.00,329.0,WeatherDisplay:10.37,2013-09-01 00:39:00,
2013-08-31 17:44:00,81.8,60.8,29.88,NE,51,2.5,3.5,49,0.00,CLR,,0.00,313.0,WeatherDisplay:10.37,2013-09-01 00:44:00,
2013-08-31 17:49:00,81.6,61.2,29.87,NE,37,4.1,4.6,50,0.00,CLR,,0.00,295.0,WeatherDisplay:10.37,2013-09-01 00:49:00,
2013-08-31 17:54:00,81.4,59.8,29.87,NE,51,2.5,3.5,48,0.00,CLR,,0.00,281.0,WeatherDisplay:10.37,2013-09-01 00:54:00,
2013-08-31 17:59:00,81.3,59.7,29.87,NNE,27,2.6,4.6,48,0.00,CLR,,0.00,265.0,WeatherDisplay:10.37,2013-09-01 00:59:00,
2013-08-31 18:04:00,80.9,59.9,29.87,East,86,3.0,3.5,49,0.00,CLR,,0.00,248.0,WeatherDisplay:10.37,2013-09-01 01:04:00,
2013-08-31 18:09:00,80.4,61.2,29.87,ENE,76,4.8,5.8,52,0.00,CLR,,0.00,232.0,WeatherDisplay:10.37,2013-09-01 01:09:00,
2013-08-31 18:14:00,79.9,61.2,29.88,NNE,32,4.1,6.9,53,0.00,CLR,,0.00,213.0,WeatherDisplay:10.37,2013-09-01 01:14:00,
2013-08-31 18:19:00,79.4,61.3,29.88,NE,47,3.3,4.6,54,0.00,CLR,,0.00,195.0,WeatherDisplay:10.37,2013-09-01 01:19:00,
2013-08-31 18:24:00,78.8,61.3,29.88,NE,49,4.1,5.8,55,0.00,CLR,,0.00,178.0,WeatherDisplay:10.37,2013-09-01 01:24:00,
2013-08-31 18:29:00,78.3,61.3,29.88,NE,55,4.0,5.8,56,0.00,CLR,,0.00,167.0,WeatherDisplay:10.37,2013-09-01 01:29:00,
2013-08-31 18:34:00,77.9,61.4,29.88,NE,50,3.7,5.8,57,0.00,CLR,,0.00,153.0,WeatherDisplay:10.37,2013-09-01 01:34:00,
2013-08-31 18:39:00,77.5,61.1,29.88,East,89,3.0,3.5,57,0.00,CLR,,0.00,142.0,WeatherDisplay:10.37,2013-09-01 01:39:00,
2013-08-31 18:44:00,77.1,61.2,29.88,ENE,67,1.7,3.5,58,0.00,CLR,,0.00,139.0,WeatherDisplay:10.37,2013-09-01 01:44:00,
2013-08-31 18:49:00,76.6,60.2,29.88,NE,53,2.8,3.5,57,0.00,CLR,,0.00,135.0,WeatherDisplay:10.37,2013-09-01 01:49:00,
2013-08-31 18:54:00,76.2,60.3,29.88,ENE,69,2.2,4.6,58,0.00,CLR,,0.00,116.0,WeatherDisplay:10.37,2013-09-01 01:54:00,
2013-08-31 18:59:00,75.9,61.0,29.88,ENE,66,3.8,5.8,60,0.00,CLR,,0.00,95.0,WeatherDisplay:10.37,2013-09-01 01:59:00,
2013-08-31 19:04:00,75.6,60.7,29.88,ESE,105,3.1,5.8,60,0.00,CLR,,0.00,79.0,WeatherDisplay:10.37,2013-09-01 02:04:00,
2013-08-31 19:09:00,75.1,60.7,29.88,East,93,3.0,4.0,61,0.00,CLR,,0.00,62.0,WeatherDisplay:10.37,2013-09-01 02:09:00,
2013-08-31 19:14:00,74.7,60.4,29.88,ENE,65,1.7,3.5,61,0.00,CLR,,0.00,47.0,WeatherDisplay:10.37,2013-09-01 02:14:00,
2013-08-31 19:19:00,74.4,60.5,29.88,ENE,62,3.2,4.6,62,0.00,CLR,,0.00,37.0,WeatherDisplay:10.37,2013-09-01 02:19:00,
2013-08-31 19:24:00,74.0,60.6,29.88,ENE,65,1.1,3.5,63,0.00,CLR,,0.00,26.0,WeatherDisplay:10.37,2013-09-01 02:24:00,
2013-08-31 19:29:00,73.6,60.2,29.88,ENE,65,0.6,1.2,63,0.00,CLR,,0.00,19.0,WeatherDisplay:10.37,2013-09-01 02:29:00,
2013-08-31 19:34:00,73.2,59.8,29.88,NE,44,2.2,3.5,63,0.00,CLR,,0.00,12.0,WeatherDisplay:10.37,2013-09-01 02:34:00,
2013-08-31 19:39:00,72.8,59.9,29.88,NE,43,2.0,3.5,64,0.00,CLR,,0.00,7.0,WeatherDisplay:10.37,2013-09-01 02:39:00,
2013-08-31 19:44:00,72.5,60.1,29.88,NE,44,0.8,1.2,65,0.00,CLR,,0.00,0.0,WeatherDisplay:10.37,2013-09-01 02:44:00,
2013-08-31 19:49:00,72.0,59.6,29.88,ENE,60,0.6,1.2,65,0.00,CLR,,0.00,0.0,WeatherDisplay:10.37,2013-09-01 02:49:00,
2013-08-31 19:54:00,71.5,57.8,29.89,ENE,60,1.6,3.5,62,0.00,CLR,,0.00,0.0,WeatherDisplay:10.37,2013-09-01 02:54:00,
2013-08-31 19:59:00,71.1,57.4,29.89,ENE,60,1.1,2.3,62,0.00,CLR,,0.00,0.0,WeatherDisplay:10.37,2013-09-01 02:59:00,
2013-08-31 20:04:00,70.8,56.7,29.89,ENE,60,1.9,3.5,61,0.00,CLR,,0.00,0.0,WeatherDisplay:10.37,2013-09-01 03:04:00,
2013-08-31 20:09:00,70.4,56.8,29.89,ENE,60,1.5,3.5,62,0.00,CLR,,0.00,0.0,WeatherDisplay:10.37,2013-09-01 03:09:00,
2013-08-31 20:14:00,70.1,56.5,29.89,ENE,60,1.5,3.5,62,0.00,CLR,,0.00,0.0,WeatherDisplay:10.37,2013-09-01 03:14:00,
2013-08-31 20:19:00,69.7,56.5,29.89,ENE,61,1.7,3.5,63,0.00,CLR,,0.00,0.0,WeatherDisplay:10.37,2013-09-01 03:19:00,
2013-08-31 20:24:00,69.4,56.7,29.90,ENE,60,2.8,3.5,64,0.00,CLR,,0.00,0.0,WeatherDisplay:10.37,2013-09-01 03:24:00,
2013-08-31 20:29:00,69.0,56.7,29.90,ENE,60,2.2,3.5,65,0.00,CLR,,0.00,0.0,WeatherDisplay:10.37,2013-09-01 03:29:00,
2013-08-31 20:34:00,68.7,56.5,29.90,ENE,60,1.8,3.5,65,0.00,CLR,,0.00,0.0,WeatherDisplay:10.37,2013-09-01 03:34:00,
2013-08-31 20:39:00,68.5,56.7,29.90,ESE,114,0.3,1.2,66,0.00,CLR,,0.00,0.0,WeatherDisplay:10.37,2013-09-01 03:39:00,
2013-08-31 20:44:00,68.2,56.4,29.90,ESE,114,0.0,3.5,66,0.00,CLR,,0.00,0.0,WeatherDisplay:10.37,2013-09-01 03:44:00,
2013-08-31 20:49:00,68.1,56.7,29.90,ESE,114,0.2,1.2,67,0.00,CLR,,0.00,0.0,WeatherDisplay:10.37,2013-09-01 03:49:00,
2013-08-31 20:54:00,67.9,56.5,29.90,East,89,2.6,3.5,67,0.00,CLR,,0.00,0.0,WeatherDisplay:10.37,2013-09-01 03:54:00,
2013-08-31 20:59:00,67.6,56.2,29.90,East,101,2.9,3.5,67,0.00,CLR,,0.00,0.0,WeatherDisplay:10.37,2013-09-01 03:59:00,
2013-08-31 21:01:00,67.4,56.5,29.91,East,100,0.7,2.3,68,0.00,CLR,,0.00,0.0,WeatherDisplay:10.37,2013-09-01 04:01:00,
2013-08-31 21:02:00,67.4,56.5,29.91,East,101,1.9,3.5,68,0.00,CLR,,0.00,0.0,WeatherDisplay:10.37,2013-09-01 04:02:00,
2013-08-31 21:07:00,67.1,56.2,29.91,East,96,1.4,3.5,68,0.00,CLR,,0.00,0.0,WeatherDisplay:10.37,2013-09-01 04:07:00,
2013-08-31 21:12:00,67.0,56.5,29.91,East,96,0.7,1.2,69,0.00,CLR,,0.00,0.0,WeatherDisplay:10.37,2013-09-01 04:12:00,
2013-08-31 21:17:00,66.8,56.3,29.91,East,96,0.9,2.0,69,0.00,CLR,,0.00,0.0,WeatherDisplay:10.37,2013-09-01 04:17:00,
2013-08-31 21:22:00,66.7,56.2,29.91,ESE,108,2.1,3.5,69,0.00,CLR,,0.00,0.0,WeatherDisplay:10.37,2013-09-01 04:22:00,
2013-08-31 21:27:00,66.5,56.4,29.91,East,98,3.8,4.6,70,0.00,CLR,,0.00,0.0,WeatherDisplay:10.37,2013-09-01 04:27:00,
2013-08-31 21:32:00,66.3,56.2,29.91,ESE,110,1.9,3.5,70,0.00,CLR,,0.00,0.0,WeatherDisplay:10.37,2013-09-01 04:32:00,
2013-08-31 21:37:00,66.1,56.4,29.91,ESE,109,1.9,2.3,71,0.00,CLR,,0.00,0.0,WeatherDisplay:10.37,2013-09-01 04:37:00,
2013-08-31 21:42:00,65.9,56.2,29.91,ESE,116,2.4,5.0,71,0.00,CLR,,0.00,0.0,WeatherDisplay:10.37,2013-09-01 04:42:00,
2013-08-31 21:47:00,65.6,56.3,29.91,ESE,104,2.2,3.5,72,0.00,CLR,,0.00,0.0,WeatherDisplay:10.37,2013-09-01 04:47:00,
2013-08-31 21:52:00,65.4,56.1,29.91,ESE,104,1.1,3.5,72,0.00,CLR,,0.00,0.0,WeatherDisplay:10.37,2013-09-01 04:52:00,
2013-08-31 21:57:00,65.2,56.3,29.91,SE,143,2.7,4.6,73,0.00,CLR,,0.00,0.0,WeatherDisplay:10.37,2013-09-01 04:57:00,
2013-08-31 22:02:00,65.0,56.1,29.91,ESE,103,0.6,2.3,73,0.00,CLR,,0.00,0.0,WeatherDisplay:10.37,2013-09-01 05:02:00,
2013-08-31 22:07:00,64.9,56.4,29.91,East,95,0.8,3.0,74,0.00,CLR,,0.00,0.0,WeatherDisplay:10.37,2013-09-01 05:07:00,
2013-08-31 22:12:00,64.8,56.3,29.91,ESE,114,2.4,4.0,74,0.00,CLR,,0.00,0.0,WeatherDisplay:10.37,2013-09-01 05:12:00,
2013-08-31 22:17:00,64.6,56.5,29.91,ESE,108,1.8,3.5,75,0.00,CLR,,0.00,0.0,WeatherDisplay:10.37,2013-09-01 05:17:00,
2013-08-31 22:22:00,64.5,56.4,29.91,ESE,110,2.4,4.0,75,0.00,BKN,,0.00,0.0,WeatherDisplay:10.37,2013-09-01 05:22:00,
2013-08-31 22:27:00,64.4,56.7,29.92,East,96,1.9,4.6,76,0.00,BKN,,0.00,0.0,WeatherDisplay:10.37,2013-09-01 05:27:00,
2013-08-31 22:32:00,64.3,56.6,29.92,ESE,120,1.7,3.5,76,0.00,BKN,,0.00,0.0,WeatherDisplay:10.37,2013-09-01 05:32:00,
2013-08-31 22:37:00,64.2,56.8,29.92,East,87,2.8,3.5,77,0.00,BKN,,0.00,0.0,WeatherDisplay:10.37,2013-09-01 05:37:00,
2013-08-31 22:42:00,64.1,56.7,29.92,East,86,2.7,4.6,77,0.00,BKN,,0.00,0.0,WeatherDisplay:10.37,2013-09-01 05:42:00,
2013-08-31 22:47:00,64.1,56.7,29.92,East,87,1.2,3.0,77,0.00,BKN,,0.00,0.0,WeatherDisplay:10.37,2013-09-01 05:47:00,
2013-08-31 22:52:00,64.0,56.6,29.92,ENE,58,3.1,6.0,77,0.00,BKN,,0.00,0.0,WeatherDisplay:10.37,2013-09-01 05:52:00,
2013-08-31 22:57:00,63.8,56.4,29.92,SE,125,3.1,4.6,77,0.00,BKN,,0.00,0.0,WeatherDisplay:10.37,2013-09-01 05:57:00,
2013-08-31 23:02:00,63.6,56.3,29.92,ENE,66,0.3,1.2,77,0.00,BKN,,0.00,0.0,WeatherDisplay:10.37,2013-09-01 06:02:00,
2013-08-31 23:07:00,63.5,56.5,29.92,ENE,66,0.4,1.2,78,0.00,BKN,,0.00,0.0,WeatherDisplay:10.37,2013-09-01 06:07:00,
2013-08-31 23:12:00,63.5,56.5,29.92,ENE,66,0.8,2.3,78,0.00,BKN,,0.00,0.0,WeatherDisplay:10.37,2013-09-01 06:12:00,
2013-08-31 23:17:00,63.4,57.1,29.92,ENE,66,1.0,2.3,80,0.00,BKN,,0.00,0.0,WeatherDisplay:10.37,2013-09-01 06:17:00,
2013-08-31 23:22:00,63.4,57.8,29.92,ENE,66,0.2,1.2,82,0.00,CLR,,0.00,0.0,WeatherDisplay:10.37,2013-09-01 06:22:00,
2013-08-31 23:27:00,63.4,58.1,29.92,ENE,66,0.5,2.3,83,0.00,CLR,,0.00,0.0,WeatherDisplay:10.37,2013-09-01 06:27:00,
2013-08-31 23:32:00,63.2,58.3,29.92,East,83,2.2,3.5,84,0.00,CLR,,0.00,0.0,WeatherDisplay:10.37,2013-09-01 06:32:00,
2013-08-31 23:37:00,63.0,58.4,29.92,East,83,1.1,3.0,85,0.00,CLR,,0.00,0.0,WeatherDisplay:10.37,2013-09-01 06:37:00,
2013-08-31 23:42:00,62.9,58.3,29.92,East,84,1.5,3.5,85,0.00,CLR,,0.00,0.0,WeatherDisplay:10.37,2013-09-01 06:42:00,
2013-08-31 23:47:00,62.7,58.5,29.92,East,84,3.2,4.0,86,0.00,CLR,,0.00,0.0,WeatherDisplay:10.37,2013-09-01 06:47:00,
2013-08-31 23:52:00,62.6,58.4,29.92,East,89,2.8,5.0,86,0.00,CLR,,0.00,0.0,WeatherDisplay:10.37,2013-09-01 06:52:00,
2013-08-31 23:57:00,62.5,58.3,29.92,East,83,3.9,4.6,86,0.00,CLR,,0.00,0.0,WeatherDisplay:10.37,2013-09-01 06:57:00,